Year,Month,Day,Hour,Minute,Value (Times are PST for temperature in C)
2011,06,26,00,00,11.60
2011,06,26,00,01,11.60
2011,06,26,00,02,11.60
2011,06,26,00,03,11.60
2011,06,26,00,04,11.60
2011,06,26,00,05,11.50
2011,06,26,00,06,11.40
2011,06,26,00,07,11.40
2011,06,26,00,08,11.40
2011,06,26,00,09,11.40
2011,06,26,00,10,11.40
2011,06,26,00,11,11.30
2011,06,26,00,12,11.30
2011,06,26,00,13,11.30
2011,06,26,00,14,11.30
2011,06,26,00,15,11.30
2011,06,26,00,16,11.40
2011,06,26,00,17,11.40
2011,06,26,00,18,11.40
2011,06,26,00,19,11.40
2011,06,26,00,20,11.40
2011,06,26,00,21,11.40
2011,06,26,00,22,11.40
2011,06,26,00,23,11.40
2011,06,26,00,24,11.40
2011,06,26,00,25,11.40
2011,06,26,00,26,11.40
2011,06,26,00,27,11.40
2011,06,26,00,28,11.40
2011,06,26,00,29,11.40
2011,06,26,00,30,11.40
2011,06,26,00,31,11.40
2011,06,26,00,32,11.40
2011,06,26,00,33,11.40
2011,06,26,00,34,11.40
2011,06,26,00,35,11.40
2011,06,26,00,36,11.40
2011,06,26,00,37,11.40
2011,06,26,00,38,11.40
2011,06,26,00,39,11.40
2011,06,26,00,40,11.40
2011,06,26,00,41,11.50
2011,06,26,00,42,11.60
2011,06,26,00,43,11.60
2011,06,26,00,44,11.60
2011,06,26,00,45,11.60
2011,06,26,00,46,11.60
2011,06,26,00,47,11.60
2011,06,26,00,48,11.60
2011,06,26,00,49,11.60
2011,06,26,00,50,11.60
2011,06,26,00,51,11.60
2011,06,26,00,52,11.60
2011,06,26,00,53,11.60
2011,06,26,00,54,11.60
2011,06,26,00,55,11.60
2011,06,26,00,56,11.60
2011,06,26,00,57,11.60
2011,06,26,00,58,11.50
2011,06,26,00,59,11.40
2011,06,26,01,00,11.40
2011,06,26,01,01,11.40
2011,06,26,01,02,11.40
2011,06,26,01,03,11.40
2011,06,26,01,04,11.30
2011,06,26,01,05,11.30
2011,06,26,01,06,11.30
2011,06,26,01,07,11.30
2011,06,26,01,08,11.30
2011,06,26,01,09,11.20
2011,06,26,01,10,11.20
2011,06,26,01,11,11.20
2011,06,26,01,12,11.20
2011,06,26,01,13,11.20
2011,06,26,01,14,11.20
2011,06,26,01,15,11.10
2011,06,26,01,16,11.10
2011,06,26,01,17,11.10
2011,06,26,01,18,11.10
2011,06,26,01,19,11.10
2011,06,26,01,20,11.10
2011,06,26,01,21,11.10
2011,06,26,01,22,11.20
2011,06,26,01,23,11.20
2011,06,26,01,24,11.20
2011,06,26,01,25,11.20
2011,06,26,01,26,11.20
2011,06,26,01,27,11.20
2011,06,26,01,28,11.20
2011,06,26,01,29,11.20
2011,06,26,01,30,11.20
2011,06,26,01,31,11.20
2011,06,26,01,32,11.20
2011,06,26,01,33,11.20
2011,06,26,01,34,11.20
2011,06,26,01,35,11.20
2011,06,26,01,36,11.10
2011,06,26,01,37,11.10
2011,06,26,01,38,11.10
2011,06,26,01,39,11.10
2011,06,26,01,40,11.10
2011,06,26,01,41,11.10
2011,06,26,01,42,11.10
2011,06,26,01,43,11.10
2011,06,26,01,44,11.10
2011,06,26,01,45,11.10
2011,06,26,01,46,11.10
2011,06,26,01,47,11.10
2011,06,26,01,48,11.10
2011,06,26,01,49,11.00
2011,06,26,01,50,10.90
2011,06,26,01,51,11.00
2011,06,26,01,52,11.10
2011,06,26,01,53,11.10
2011,06,26,01,54,11.10
2011,06,26,01,55,11.10
2011,06,26,01,56,11.10
2011,06,26,01,57,11.10
2011,06,26,01,58,11.10
2011,06,26,01,59,11.10
2011,06,26,02,00,11.10
2011,06,26,02,01,11.10
2011,06,26,02,02,11.20
2011,06,26,02,03,11.20
2011,06,26,02,04,11.20
2011,06,26,02,05,11.20
2011,06,26,02,06,11.20
2011,06,26,02,07,11.20
2011,06,26,02,08,11.10
2011,06,26,02,09,11.10
2011,06,26,02,10,11.10
2011,06,26,02,11,11.10
2011,06,26,02,12,11.10
2011,06,26,02,13,11.10
2011,06,26,02,14,11.10
2011,06,26,02,15,10.90
2011,06,26,02,16,10.90
2011,06,26,02,17,10.90
2011,06,26,02,18,10.90
2011,06,26,02,19,10.90
2011,06,26,02,20,10.90
2011,06,26,02,21,10.80
2011,06,26,02,22,10.80
2011,06,26,02,23,10.70
2011,06,26,02,24,10.70
2011,06,26,02,25,10.70
2011,06,26,02,26,10.60
2011,06,26,02,27,10.60
2011,06,26,02,28,10.60
2011,06,26,02,29,10.60
2011,06,26,02,30,10.60
2011,06,26,02,31,10.60
2011,06,26,02,32,10.60
2011,06,26,02,33,10.60
2011,06,26,02,34,10.60
2011,06,26,02,35,10.60
2011,06,26,02,36,10.60
2011,06,26,02,37,10.60
2011,06,26,02,38,10.60
2011,06,26,02,39,10.60
2011,06,26,02,40,10.60
2011,06,26,02,41,10.60
2011,06,26,02,42,10.60
2011,06,26,02,43,10.60
2011,06,26,02,44,10.60
2011,06,26,02,45,10.60
2011,06,26,02,46,10.50
2011,06,26,02,47,10.40
2011,06,26,02,48,10.40
2011,06,26,02,49,10.40
2011,06,26,02,50,10.40
2011,06,26,02,51,10.40
2011,06,26,02,52,10.40
2011,06,26,02,53,10.40
2011,06,26,02,54,10.40
2011,06,26,02,55,10.40
2011,06,26,02,56,10.40
2011,06,26,02,57,10.40
2011,06,26,02,58,10.40
2011,06,26,02,59,10.40
2011,06,26,03,00,10.40
2011,06,26,03,01,10.40
2011,06,26,03,02,10.40
2011,06,26,03,03,10.30
2011,06,26,03,04,10.20
2011,06,26,03,05,10.20
2011,06,26,03,06,10.10
2011,06,26,03,07,10.10
2011,06,26,03,08,10.10
2011,06,26,03,09,10.10
2011,06,26,03,10,9.90
2011,06,26,03,11,9.90
2011,06,26,03,12,9.90
2011,06,26,03,13,9.90
2011,06,26,03,14,9.90
2011,06,26,03,15,9.90
2011,06,26,03,16,9.90
2011,06,26,03,17,9.90
2011,06,26,03,18,9.90
2011,06,26,03,19,9.90
2011,06,26,03,20,9.90
2011,06,26,03,21,9.90
2011,06,26,03,22,9.90
2011,06,26,03,23,9.90
2011,06,26,03,24,9.90
2011,06,26,03,25,9.90
2011,06,26,03,26,9.90
2011,06,26,03,27,9.90
2011,06,26,03,28,9.90
2011,06,26,03,29,9.90
2011,06,26,03,30,9.90
2011,06,26,03,31,9.90
2011,06,26,03,32,9.90
2011,06,26,03,33,9.90
2011,06,26,03,34,9.90
2011,06,26,03,35,9.80
2011,06,26,03,36,9.80
2011,06,26,03,37,9.80
2011,06,26,03,38,9.80
2011,06,26,03,39,9.80
2011,06,26,03,40,9.80
2011,06,26,03,41,9.80
2011,06,26,03,42,9.80
2011,06,26,03,43,9.90
2011,06,26,03,44,9.80
2011,06,26,03,45,9.80
2011,06,26,03,46,9.90
2011,06,26,03,47,9.90
2011,06,26,03,48,9.90
2011,06,26,03,49,9.90
2011,06,26,03,50,9.90
2011,06,26,03,51,9.90
2011,06,26,03,52,9.90
2011,06,26,03,53,9.90
2011,06,26,03,54,9.90
2011,06,26,03,55,9.90
2011,06,26,03,56,9.90
2011,06,26,03,57,9.90
2011,06,26,03,58,9.90
2011,06,26,03,59,9.90
2011,06,26,04,00,9.90
2011,06,26,04,01,9.90
2011,06,26,04,02,10.00
2011,06,26,04,03,10.10
2011,06,26,04,04,10.10
2011,06,26,04,05,10.10
2011,06,26,04,06,10.10
2011,06,26,04,07,10.10
2011,06,26,04,08,10.10
2011,06,26,04,09,10.00
2011,06,26,04,10,9.90
2011,06,26,04,11,9.90
2011,06,26,04,12,9.90
2011,06,26,04,13,9.90
2011,06,26,04,14,9.90
2011,06,26,04,15,9.90
2011,06,26,04,16,9.80
2011,06,26,04,17,9.80
2011,06,26,04,18,9.80
2011,06,26,04,19,9.70
2011,06,26,04,20,9.70
2011,06,26,04,21,9.70
2011,06,26,04,22,9.70
2011,06,26,04,23,9.70
2011,06,26,04,24,9.70
2011,06,26,04,25,9.70
2011,06,26,04,26,9.70
2011,06,26,04,27,9.70
2011,06,26,04,28,9.70
2011,06,26,04,29,9.70
2011,06,26,04,30,9.70
2011,06,26,04,31,9.70
2011,06,26,04,32,9.70
2011,06,26,04,33,9.70
2011,06,26,04,34,9.80
2011,06,26,04,35,9.80
2011,06,26,04,36,9.80
2011,06,26,04,37,9.80
2011,06,26,04,38,9.80
2011,06,26,04,39,9.80
2011,06,26,04,40,9.80
2011,06,26,04,41,9.70
2011,06,26,04,42,9.70
2011,06,26,04,43,9.70
2011,06,26,04,44,9.70
2011,06,26,04,45,9.70
2011,06,26,04,46,9.70
2011,06,26,04,47,9.70
2011,06,26,04,48,9.70
2011,06,26,04,49,9.70
2011,06,26,04,50,9.70
2011,06,26,04,51,9.70
2011,06,26,04,52,9.70
2011,06,26,04,53,9.70
2011,06,26,04,54,9.70
2011,06,26,04,55,9.70
2011,06,26,04,56,9.70
2011,06,26,04,57,9.70
2011,06,26,04,58,9.70
2011,06,26,04,59,9.70
2011,06,26,05,00,9.60
2011,06,26,05,01,9.60
2011,06,26,05,02,9.60
2011,06,26,05,03,9.50
2011,06,26,05,04,9.50
2011,06,26,05,05,9.50
2011,06,26,05,06,9.50
2011,06,26,05,07,9.50
2011,06,26,05,08,9.50
2011,06,26,05,09,9.50
2011,06,26,05,10,9.50
2011,06,26,05,11,9.50
2011,06,26,05,12,9.50
2011,06,26,05,13,9.50
2011,06,26,05,14,9.50
2011,06,26,05,15,9.60
2011,06,26,05,16,9.60
2011,06,26,05,17,9.60
2011,06,26,05,18,9.60
2011,06,26,05,19,9.50
2011,06,26,05,20,9.50
2011,06,26,05,21,9.50
2011,06,26,05,22,9.50
2011,06,26,05,23,9.50
2011,06,26,05,24,9.50
2011,06,26,05,25,9.50
2011,06,26,05,26,9.50
2011,06,26,05,27,9.50
2011,06,26,05,28,9.40
2011,06,26,05,29,9.40
2011,06,26,05,30,9.40
2011,06,26,05,31,9.40
2011,06,26,05,32,9.30
2011,06,26,05,33,9.30
2011,06,26,05,34,9.30
2011,06,26,05,35,9.40
2011,06,26,05,36,9.40
2011,06,26,05,37,9.50
2011,06,26,05,38,9.50
2011,06,26,05,39,9.60
2011,06,26,05,40,9.60
2011,06,26,05,41,9.60
2011,06,26,05,42,9.70
2011,06,26,05,43,9.70
2011,06,26,05,44,9.70
2011,06,26,05,45,9.70
2011,06,26,05,46,9.80
2011,06,26,05,47,9.80
2011,06,26,05,48,9.80
2011,06,26,05,49,9.90
2011,06,26,05,50,9.90
2011,06,26,05,51,9.90
2011,06,26,05,52,9.90
2011,06,26,05,53,10.00
2011,06,26,05,54,10.10
2011,06,26,05,55,10.10
2011,06,26,05,56,10.10
2011,06,26,05,57,10.10
2011,06,26,05,58,10.10
2011,06,26,05,59,10.20
2011,06,26,06,00,10.20
2011,06,26,06,01,10.20
2011,06,26,06,02,10.30
2011,06,26,06,03,10.30
2011,06,26,06,04,10.30
2011,06,26,06,05,10.40
2011,06,26,06,06,10.40
2011,06,26,06,07,10.40
2011,06,26,06,08,10.40
2011,06,26,06,09,10.40
2011,06,26,06,10,10.40
2011,06,26,06,11,10.40
2011,06,26,06,12,10.40
2011,06,26,06,13,10.40
2011,06,26,06,14,10.50
2011,06,26,06,15,10.60
2011,06,26,06,16,10.60
2011,06,26,06,17,10.60
2011,06,26,06,18,10.60
2011,06,26,06,19,10.60
2011,06,26,06,20,10.70
2011,06,26,06,21,10.70
2011,06,26,06,22,10.70
2011,06,26,06,23,10.80
2011,06,26,06,24,10.80
2011,06,26,06,25,10.80
2011,06,26,06,26,10.80
2011,06,26,06,27,10.80
2011,06,26,06,28,10.90
2011,06,26,06,29,10.90
2011,06,26,06,30,10.90
2011,06,26,06,31,10.90
2011,06,26,06,32,11.00
2011,06,26,06,33,11.10
2011,06,26,06,34,11.10
2011,06,26,06,35,11.10
2011,06,26,06,36,11.20
2011,06,26,06,37,11.20
2011,06,26,06,38,11.20
2011,06,26,06,39,11.30
2011,06,26,06,40,11.30
2011,06,26,06,41,11.30
2011,06,26,06,42,11.20
2011,06,26,06,43,11.30
2011,06,26,06,44,11.30
2011,06,26,06,45,11.30
2011,06,26,06,46,11.30
2011,06,26,06,47,11.30
2011,06,26,06,48,11.30
2011,06,26,06,49,11.30
2011,06,26,06,50,11.30
2011,06,26,06,51,11.30
2011,06,26,06,52,11.30
2011,06,26,06,53,11.30
2011,06,26,06,54,11.40
2011,06,26,06,55,11.40
2011,06,26,06,56,11.40
2011,06,26,06,57,11.40
2011,06,26,06,58,11.40
2011,06,26,06,59,11.40
2011,06,26,07,00,11.40
2011,06,26,07,01,11.60
2011,06,26,07,02,11.60
2011,06,26,07,03,11.60
2011,06,26,07,04,11.60
2011,06,26,07,05,11.70
2011,06,26,07,06,11.70
2011,06,26,07,07,11.70
2011,06,26,07,08,11.70
2011,06,26,07,09,11.70
2011,06,26,07,10,11.80
2011,06,26,07,11,11.80
2011,06,26,07,12,11.80
2011,06,26,07,13,11.80
2011,06,26,07,14,11.80
2011,06,26,07,15,11.80
2011,06,26,07,16,11.80
2011,06,26,07,17,11.80
2011,06,26,07,18,11.80
2011,06,26,07,19,11.80
2011,06,26,07,20,11.80
2011,06,26,07,21,11.70
2011,06,26,07,22,11.70
2011,06,26,07,23,11.70
2011,06,26,07,24,11.70
2011,06,26,07,25,11.70
2011,06,26,07,26,11.70
2011,06,26,07,27,11.70
2011,06,26,07,28,11.70
2011,06,26,07,29,11.70
2011,06,26,07,30,11.70
2011,06,26,07,31,11.70
2011,06,26,07,32,11.70
2011,06,26,07,33,11.70
2011,06,26,07,34,11.70
2011,06,26,07,35,11.70
2011,06,26,07,36,11.80
2011,06,26,07,37,11.80
2011,06,26,07,38,11.80
2011,06,26,07,39,11.80
2011,06,26,07,40,11.90
2011,06,26,07,41,12.00
2011,06,26,07,42,12.00
2011,06,26,07,43,12.00
2011,06,26,07,44,12.00
2011,06,26,07,45,12.00
2011,06,26,07,46,12.00
2011,06,26,07,47,12.10
2011,06,26,07,48,12.10
2011,06,26,07,49,12.20
2011,06,26,07,50,12.20
2011,06,26,07,51,12.20
2011,06,26,07,52,12.20
2011,06,26,07,53,12.30
2011,06,26,07,54,12.30
2011,06,26,07,55,12.30
2011,06,26,07,56,12.40
2011,06,26,07,57,12.50
2011,06,26,07,58,12.50
2011,06,26,07,59,12.60
2011,06,26,08,00,12.60
2011,06,26,08,01,12.70
2011,06,26,08,02,12.70
2011,06,26,08,03,12.70
2011,06,26,08,04,12.70
2011,06,26,08,05,12.70
2011,06,26,08,06,12.70
2011,06,26,08,07,12.60
2011,06,26,08,08,12.60
2011,06,26,08,09,12.60
2011,06,26,08,10,12.60
2011,06,26,08,11,12.50
2011,06,26,08,12,12.50
2011,06,26,08,13,12.50
2011,06,26,08,14,12.40
2011,06,26,08,15,12.30
2011,06,26,08,16,12.30
2011,06,26,08,17,12.30
2011,06,26,08,18,12.30
2011,06,26,08,19,12.30
2011,06,26,08,20,12.30
2011,06,26,08,21,12.30
2011,06,26,08,22,12.30
2011,06,26,08,23,12.30
2011,06,26,08,24,12.30
2011,06,26,08,25,12.30
2011,06,26,08,26,12.30
2011,06,26,08,27,12.30
2011,06,26,08,28,12.30
2011,06,26,08,29,12.30
2011,06,26,08,30,12.30
2011,06,26,08,31,12.30
2011,06,26,08,32,12.30
2011,06,26,08,33,12.30
2011,06,26,08,34,12.30
2011,06,26,08,35,12.30
2011,06,26,08,36,12.30
2011,06,26,08,37,12.30
2011,06,26,08,38,12.20
2011,06,26,08,39,12.20
2011,06,26,08,40,12.20
2011,06,26,08,41,12.20
2011,06,26,08,42,12.20
2011,06,26,08,43,12.20
2011,06,26,08,44,12.20
2011,06,26,08,45,12.20
2011,06,26,08,46,12.20
2011,06,26,08,47,12.10
2011,06,26,08,48,12.10
2011,06,26,08,49,12.10
2011,06,26,08,50,12.10
2011,06,26,08,51,12.10
2011,06,26,08,52,12.10
2011,06,26,08,53,12.10
2011,06,26,08,54,12.10
2011,06,26,08,55,12.20
2011,06,26,08,56,12.20
2011,06,26,08,57,12.20
2011,06,26,08,58,12.20
2011,06,26,08,59,12.20
2011,06,26,09,00,12.30
2011,06,26,09,01,12.30
2011,06,26,09,02,12.30
2011,06,26,09,03,12.40
2011,06,26,09,04,12.40
2011,06,26,09,05,12.50
2011,06,26,09,06,12.50
2011,06,26,09,07,12.50
2011,06,26,09,08,12.50
2011,06,26,09,09,12.50
2011,06,26,09,10,12.50
2011,06,26,09,11,12.50
2011,06,26,09,12,12.60
2011,06,26,09,13,12.70
2011,06,26,09,14,12.70
2011,06,26,09,15,12.80
2011,06,26,09,16,12.80
2011,06,26,09,17,12.90
2011,06,26,09,18,12.90
2011,06,26,09,19,13.00
2011,06,26,09,20,13.00
2011,06,26,09,21,13.00
2011,06,26,09,22,13.00
2011,06,26,09,23,13.10
2011,06,26,09,24,13.10
2011,06,26,09,25,13.10
2011,06,26,09,26,13.20
2011,06,26,09,27,13.20
2011,06,26,09,28,13.20
2011,06,26,09,29,13.20
2011,06,26,09,30,13.30
2011,06,26,09,31,13.30
2011,06,26,09,32,13.30
2011,06,26,09,33,13.30
2011,06,26,09,34,13.40
2011,06,26,09,35,13.50
2011,06,26,09,36,13.50
2011,06,26,09,37,13.60
2011,06,26,09,38,13.60
2011,06,26,09,39,13.70
2011,06,26,09,40,13.70
2011,06,26,09,41,13.80
2011,06,26,09,42,13.90
2011,06,26,09,43,14.00
2011,06,26,09,44,14.10
2011,06,26,09,45,14.20
2011,06,26,09,46,14.20
2011,06,26,09,47,14.20
2011,06,26,09,48,14.20
2011,06,26,09,49,14.20
2011,06,26,09,50,14.30
2011,06,26,09,51,14.30
2011,06,26,09,52,14.40
2011,06,26,09,53,14.40
2011,06,26,09,54,14.40
2011,06,26,09,55,14.40
2011,06,26,09,56,14.40
2011,06,26,09,57,14.40
2011,06,26,09,58,14.50
2011,06,26,09,59,14.50
2011,06,26,10,00,14.60
2011,06,26,10,01,14.60
2011,06,26,10,02,14.60
2011,06,26,10,03,14.70
2011,06,26,10,04,14.80
2011,06,26,10,05,14.90
2011,06,26,10,06,15.00
2011,06,26,10,07,15.00
2011,06,26,10,08,15.10
2011,06,26,10,09,15.10
2011,06,26,10,10,15.20
2011,06,26,10,11,15.30
2011,06,26,10,12,15.30
2011,06,26,10,13,15.30
2011,06,26,10,14,15.30
2011,06,26,10,15,15.40
2011,06,26,10,16,15.50
2011,06,26,10,17,15.60
2011,06,26,10,18,15.70
2011,06,26,10,19,15.80
2011,06,26,10,20,15.90
2011,06,26,10,21,16.10
2011,06,26,10,22,16.10
2011,06,26,10,23,16.20
2011,06,26,10,24,16.30
2011,06,26,10,25,16.40
2011,06,26,10,26,16.40
2011,06,26,10,27,16.50
2011,06,26,10,28,16.60
2011,06,26,10,29,16.60
2011,06,26,10,30,16.60
2011,06,26,10,31,16.60
2011,06,26,10,32,16.60
2011,06,26,10,33,16.70
2011,06,26,10,34,16.70
2011,06,26,10,35,16.70
2011,06,26,10,36,16.70
2011,06,26,10,37,16.60
2011,06,26,10,38,16.60
2011,06,26,10,39,16.40
2011,06,26,10,40,16.40
2011,06,26,10,41,16.30
2011,06,26,10,42,16.20
2011,06,26,10,43,16.30
2011,06,26,10,44,16.30
2011,06,26,10,45,16.20
2011,06,26,10,46,16.10
2011,06,26,10,47,16.20
2011,06,26,10,48,16.20
2011,06,26,10,49,16.20
2011,06,26,10,50,16.20
2011,06,26,10,51,16.20
2011,06,26,10,52,16.30
2011,06,26,10,53,16.30
2011,06,26,10,54,16.30
2011,06,26,10,55,16.30
2011,06,26,10,56,16.30
2011,06,26,10,57,16.30
2011,06,26,10,58,16.30
2011,06,26,10,59,16.40
2011,06,26,11,00,16.40
2011,06,26,11,01,16.40
2011,06,26,11,02,16.30
2011,06,26,11,03,16.40
2011,06,26,11,04,16.50
2011,06,26,11,05,16.60
2011,06,26,11,06,16.60
2011,06,26,11,07,16.40
2011,06,26,11,08,16.40
2011,06,26,11,09,16.30
2011,06,26,11,10,16.30
2011,06,26,11,11,16.30
2011,06,26,11,12,16.30
2011,06,26,11,13,16.30
2011,06,26,11,14,16.30
2011,06,26,11,15,16.30
2011,06,26,11,16,16.40
2011,06,26,11,17,16.40
2011,06,26,11,18,16.40
2011,06,26,11,19,16.50
2011,06,26,11,20,16.40
2011,06,26,11,21,16.40
2011,06,26,11,22,16.40
2011,06,26,11,23,16.40
2011,06,26,11,24,16.40
2011,06,26,11,25,16.60
2011,06,26,11,26,16.70
2011,06,26,11,27,16.80
2011,06,26,11,28,16.80
2011,06,26,11,29,16.60
2011,06,26,11,30,16.30
2011,06,26,11,31,16.00
2011,06,26,11,32,15.80
2011,06,26,11,33,15.70
2011,06,26,11,34,15.70
2011,06,26,11,35,15.60
2011,06,26,11,36,15.60
2011,06,26,11,37,15.60
2011,06,26,11,38,15.80
2011,06,26,11,39,15.80
2011,06,26,11,40,15.90
2011,06,26,11,41,15.90
2011,06,26,11,42,16.00
2011,06,26,11,43,16.10
2011,06,26,11,44,16.10
2011,06,26,11,45,16.10
2011,06,26,11,46,16.10
2011,06,26,11,47,16.10
2011,06,26,11,48,16.20
2011,06,26,11,49,16.20
2011,06,26,11,50,16.30
2011,06,26,11,51,16.30
2011,06,26,11,52,16.30
2011,06,26,11,53,16.30
2011,06,26,11,54,16.40
2011,06,26,11,55,16.40
2011,06,26,11,56,16.30
2011,06,26,11,57,16.30
2011,06,26,11,58,16.30
2011,06,26,11,59,16.40
2011,06,26,12,00,16.50
2011,06,26,12,01,16.40
2011,06,26,12,02,16.40
2011,06,26,12,03,16.30
2011,06,26,12,04,16.20
2011,06,26,12,05,16.10
2011,06,26,12,06,16.10
2011,06,26,12,07,16.10
2011,06,26,12,08,16.10
2011,06,26,12,09,16.20
2011,06,26,12,10,16.30
2011,06,26,12,11,16.50
2011,06,26,12,12,16.60
2011,06,26,12,13,16.60
2011,06,26,12,14,16.60
2011,06,26,12,15,16.60
2011,06,26,12,16,16.40
2011,06,26,12,17,16.40
2011,06,26,12,18,16.40
2011,06,26,12,19,16.50
2011,06,26,12,20,16.70
2011,06,26,12,21,16.60
2011,06,26,12,22,16.70
2011,06,26,12,23,16.70
2011,06,26,12,24,16.80
2011,06,26,12,25,16.90
2011,06,26,12,26,16.90
2011,06,26,12,27,16.90
2011,06,26,12,28,17.00
2011,06,26,12,29,17.10
2011,06,26,12,30,17.20
2011,06,26,12,31,17.30
2011,06,26,12,32,17.30
2011,06,26,12,33,17.30
2011,06,26,12,34,17.20
2011,06,26,12,35,17.10
2011,06,26,12,36,16.90
2011,06,26,12,37,16.80
2011,06,26,12,38,16.70
2011,06,26,12,39,16.70
2011,06,26,12,40,16.80
2011,06,26,12,41,16.90
2011,06,26,12,42,16.90
2011,06,26,12,43,17.00
2011,06,26,12,44,17.00
2011,06,26,12,45,17.20
2011,06,26,12,46,17.20
2011,06,26,12,47,17.20
2011,06,26,12,48,17.20
2011,06,26,12,49,17.00
2011,06,26,12,50,16.90
2011,06,26,12,51,17.00
2011,06,26,12,52,17.10
2011,06,26,12,53,17.00
2011,06,26,12,54,17.00
2011,06,26,12,55,17.00
2011,06,26,12,56,17.00
2011,06,26,12,57,16.90
2011,06,26,12,58,16.80
2011,06,26,12,59,16.70
2011,06,26,13,00,16.70
2011,06,26,13,01,16.70
2011,06,26,13,02,16.70
2011,06,26,13,03,16.70
2011,06,26,13,04,16.70
2011,06,26,13,05,16.80
2011,06,26,13,06,16.90
2011,06,26,13,07,17.00
2011,06,26,13,08,17.00
2011,06,26,13,09,16.90
2011,06,26,13,10,17.00
2011,06,26,13,11,17.10
2011,06,26,13,12,17.20
2011,06,26,13,13,17.20
2011,06,26,13,14,17.10
2011,06,26,13,15,17.00
2011,06,26,13,16,17.00
2011,06,26,13,17,16.90
2011,06,26,13,18,16.90
2011,06,26,13,19,16.80
2011,06,26,13,20,16.90
2011,06,26,13,21,17.00
2011,06,26,13,22,17.10
2011,06,26,13,23,17.30
2011,06,26,13,24,17.40
2011,06,26,13,25,17.40
2011,06,26,13,26,17.40
2011,06,26,13,27,17.30
2011,06,26,13,28,17.30
2011,06,26,13,29,17.30
2011,06,26,13,30,17.20
2011,06,26,13,31,17.10
2011,06,26,13,32,17.10
2011,06,26,13,33,17.20
2011,06,26,13,34,17.20
2011,06,26,13,35,17.30
2011,06,26,13,36,17.40
2011,06,26,13,37,17.50
2011,06,26,13,38,17.50
2011,06,26,13,39,17.50
2011,06,26,13,40,17.50
2011,06,26,13,41,17.50
2011,06,26,13,42,17.50
2011,06,26,13,43,17.40
2011,06,26,13,44,17.40
2011,06,26,13,45,17.40
2011,06,26,13,46,17.30
2011,06,26,13,47,17.20
2011,06,26,13,48,17.10
2011,06,26,13,49,17.10
2011,06,26,13,50,17.20
2011,06,26,13,51,17.20
2011,06,26,13,52,17.20
2011,06,26,13,53,17.30
2011,06,26,13,54,17.30
2011,06,26,13,55,17.30
2011,06,26,13,56,17.30
2011,06,26,13,57,17.30
2011,06,26,13,58,17.30
2011,06,26,13,59,17.30
2011,06,26,14,00,17.40
2011,06,26,14,01,17.40
2011,06,26,14,02,17.40
2011,06,26,14,03,17.40
2011,06,26,14,04,17.50
2011,06,26,14,05,17.60
2011,06,26,14,06,17.70
2011,06,26,14,07,17.90
2011,06,26,14,08,18.00
2011,06,26,14,09,18.20
2011,06,26,14,10,18.20
2011,06,26,14,11,18.30
2011,06,26,14,12,18.50
2011,06,26,14,13,18.50
2011,06,26,14,14,18.60
2011,06,26,14,15,18.50
2011,06,26,14,16,18.40
2011,06,26,14,17,18.20
2011,06,26,14,18,18.10
2011,06,26,14,19,18.10
2011,06,26,14,20,18.10
2011,06,26,14,21,18.00
2011,06,26,14,22,17.90
2011,06,26,14,23,17.90
2011,06,26,14,24,17.90
2011,06,26,14,25,17.90
2011,06,26,14,26,17.90
2011,06,26,14,27,17.90
2011,06,26,14,28,18.00
2011,06,26,14,29,18.10
2011,06,26,14,30,18.10
2011,06,26,14,31,18.10
2011,06,26,14,32,18.10
2011,06,26,14,33,18.10
2011,06,26,14,34,18.10
2011,06,26,14,35,18.20
2011,06,26,14,36,18.30
2011,06,26,14,37,18.30
2011,06,26,14,38,18.40
2011,06,26,14,39,18.40
2011,06,26,14,40,18.40
2011,06,26,14,41,18.50
2011,06,26,14,42,18.50
2011,06,26,14,43,18.40
2011,06,26,14,44,18.50
2011,06,26,14,45,18.50
2011,06,26,14,46,18.50
2011,06,26,14,47,18.40
2011,06,26,14,48,18.50
2011,06,26,14,49,18.50
2011,06,26,14,50,18.50
2011,06,26,14,51,18.50
2011,06,26,14,52,18.60
2011,06,26,14,53,18.60
2011,06,26,14,54,18.70
2011,06,26,14,55,18.90
2011,06,26,14,56,18.90
2011,06,26,14,57,18.90
2011,06,26,14,58,18.90
2011,06,26,14,59,18.90
2011,06,26,15,00,18.90
2011,06,26,15,01,19.00
2011,06,26,15,02,19.10
2011,06,26,15,03,19.10
2011,06,26,15,04,19.00
2011,06,26,15,05,18.90
2011,06,26,15,06,18.90
2011,06,26,15,07,18.90
2011,06,26,15,08,18.90
2011,06,26,15,09,19.00
2011,06,26,15,10,19.10
2011,06,26,15,11,19.20
2011,06,26,15,12,19.20
2011,06,26,15,13,19.20
2011,06,26,15,14,19.10
2011,06,26,15,15,19.10
2011,06,26,15,16,19.00
2011,06,26,15,17,18.90
2011,06,26,15,18,18.90
2011,06,26,15,19,18.80
2011,06,26,15,20,18.60
2011,06,26,15,21,18.50
2011,06,26,15,22,18.50
2011,06,26,15,23,18.50
2011,06,26,15,24,18.50
2011,06,26,15,25,18.50
2011,06,26,15,26,18.60
2011,06,26,15,27,18.60
2011,06,26,15,28,18.50
2011,06,26,15,29,18.50
2011,06,26,15,30,18.40
2011,06,26,15,31,18.50
2011,06,26,15,32,18.50
2011,06,26,15,33,18.40
2011,06,26,15,34,18.40
2011,06,26,15,35,18.30
2011,06,26,15,36,18.30
2011,06,26,15,37,18.30
2011,06,26,15,38,18.30
2011,06,26,15,39,18.30
2011,06,26,15,40,18.20
2011,06,26,15,41,18.20
2011,06,26,15,42,18.10
2011,06,26,15,43,18.00
2011,06,26,15,44,17.90
2011,06,26,15,45,17.90
2011,06,26,15,46,17.90
2011,06,26,15,47,17.90
2011,06,26,15,48,17.90
2011,06,26,15,49,17.90
2011,06,26,15,50,17.90
2011,06,26,15,51,18.00
2011,06,26,15,52,18.00
2011,06,26,15,53,17.90
2011,06,26,15,54,17.90
2011,06,26,15,55,17.90
2011,06,26,15,56,17.80
2011,06,26,15,57,17.80
2011,06,26,15,58,17.80
2011,06,26,15,59,17.80
2011,06,26,16,00,17.80
2011,06,26,16,01,17.80
2011,06,26,16,02,17.80
2011,06,26,16,03,17.90
2011,06,26,16,04,17.90
2011,06,26,16,05,18.00
2011,06,26,16,06,18.10
2011,06,26,16,07,18.00
2011,06,26,16,08,17.90
2011,06,26,16,09,17.90
2011,06,26,16,10,17.90
2011,06,26,16,11,17.90
2011,06,26,16,12,17.80
2011,06,26,16,13,17.70
2011,06,26,16,14,17.70
2011,06,26,16,15,17.70
2011,06,26,16,16,17.70
2011,06,26,16,17,17.70
2011,06,26,16,18,17.70
2011,06,26,16,19,17.80
2011,06,26,16,20,17.80
2011,06,26,16,21,17.90
2011,06,26,16,22,18.00
2011,06,26,16,23,18.10
2011,06,26,16,24,18.10
2011,06,26,16,25,18.10
2011,06,26,16,26,18.00
2011,06,26,16,27,17.90
2011,06,26,16,28,17.90
2011,06,26,16,29,18.00
2011,06,26,16,30,18.10
2011,06,26,16,31,18.10
2011,06,26,16,32,18.10
2011,06,26,16,33,18.10
2011,06,26,16,34,17.90
2011,06,26,16,35,17.90
2011,06,26,16,36,17.90
2011,06,26,16,37,18.00
2011,06,26,16,38,18.10
2011,06,26,16,39,18.10
2011,06,26,16,40,18.10
2011,06,26,16,41,18.20
2011,06,26,16,42,18.20
2011,06,26,16,43,18.20
2011,06,26,16,44,18.30
2011,06,26,16,45,18.40
2011,06,26,16,46,18.40
2011,06,26,16,47,18.50
2011,06,26,16,48,18.50
2011,06,26,16,49,18.60
2011,06,26,16,50,18.70
2011,06,26,16,51,18.80
2011,06,26,16,52,18.90
2011,06,26,16,53,18.90
2011,06,26,16,54,18.90
2011,06,26,16,55,18.90
2011,06,26,16,56,18.90
2011,06,26,16,57,19.10
2011,06,26,16,58,19.10
2011,06,26,16,59,19.20
2011,06,26,17,00,19.30
2011,06,26,17,01,19.40
2011,06,26,17,02,19.50
2011,06,26,17,03,19.50
2011,06,26,17,04,19.60
2011,06,26,17,05,19.50
2011,06,26,17,06,19.40
2011,06,26,17,07,19.30
2011,06,26,17,08,19.40
2011,06,26,17,09,19.40
2011,06,26,17,10,19.50
2011,06,26,17,11,19.50
2011,06,26,17,12,19.50
2011,06,26,17,13,19.50
2011,06,26,17,14,19.50
2011,06,26,17,15,19.40
2011,06,26,17,16,19.40
2011,06,26,17,17,19.30
2011,06,26,17,18,19.20
2011,06,26,17,19,19.10
2011,06,26,17,20,19.10
2011,06,26,17,21,19.10
2011,06,26,17,22,19.00
2011,06,26,17,23,18.90
2011,06,26,17,24,18.80
2011,06,26,17,25,18.80
2011,06,26,17,26,18.70